This is the latest recevied weather packets stored in our database for station/object KC3ELT-10. If no packets are shown the sender has not sent any weather packets the latest 10 day(s).
| Time | Temp. | Humidity | Pressure | Rain* | Wind** | Luminosity | Snow |
|---|---|---|---|---|---|---|---|
| 1777466578 | 10° C | 72% | 1009.7 hPa | 0 mm | 0.45 m/s, 203° | - | - |
| 1777466278 | 10° C | 71% | 1009.7 hPa | 0 mm | 0.45 m/s, 190° | - | - |
| 1777465979 | 10° C | 72% | 1009.7 hPa | 0 mm | 0 m/s | - | - |
| 1777465679 | 10° C | 72% | 1009.6 hPa | 0 mm | 0 m/s | - | - |
| 1777465378 | 9.44° C | 72% | 1009.6 hPa | 0 mm | 0 m/s | - | - |
| 1777465079 | 9.44° C | 72% | 1009.6 hPa | 0 mm | 0 m/s | - | - |
| 1777464778 | 9.44° C | 72% | 1009.6 hPa | 0 mm | 0.45 m/s, 200° | - | - |
| 1777464478 | 9.44° C | 73% | 1009.6 hPa | 0 mm | 0.45 m/s, 173° | - | - |
| 1777464178 | 9.44° C | 72% | 1009.6 hPa | 0 mm | 0 m/s | - | - |
| 1777463879 | 9.44° C | 73% | 1010 hPa | 0 mm | 0.45 m/s, 153° | - | - |
| 1777463579 | 9.44° C | 73% | 1010 hPa | 0 mm | 0.89 m/s, 143° | - | - |
| 1777463279 | 9.44° C | 73% | 1010 hPa | 0 mm | 0 m/s | - | - |
| 1777462978 | 9.44° C | 73% | 1010 hPa | 0 mm | 0.45 m/s, 183° | - | - |
| 1777462678 | 9.44° C | 74% | 1010 hPa | 0 mm | 0.45 m/s, 197° | - | - |
| 1777462379 | 9.44° C | 75% | 1010 hPa | 0 mm | 0.45 m/s, 176° | - | - |
| 1777462078 | 9.44° C | 74% | 1009.8 hPa | 0 mm | 0 m/s | - | - |
| 1777461779 | 9.44° C | 74% | 1009.8 hPa | 0 mm | 0 m/s | - | - |
| 1777461479 | 9.44° C | 74% | 1009.8 hPa | 0 mm | 0.89 m/s, 179° | - | - |
| 1777461178 | 9.44° C | 75% | 1009.7 hPa | 0 mm | 0.45 m/s, 172° | - | - |
| 1777460879 | 9.44° C | 75% | 1009.7 hPa | 0 mm | 0.45 m/s, 218° | - | - |
| 1777460579 | 9.44° C | 75% | 1009.7 hPa | 0 mm | 0.89 m/s, 155° | - | - |
| 1777460278 | 9.44° C | 75% | 1009.5 hPa | 0 mm | 1.34 m/s, 141° | - | - |
| 1777459978 | 9.44° C | 75% | 1009.5 hPa | 0 mm | 0 m/s | - | - |
| 1777459679 | 9.44° C | 75% | 1009.5 hPa | 0 mm | 0.45 m/s, 179° | - | - |
| 1777459379 | 9.44° C | 75% | 1009.6 hPa | 0 mm | 0.45 m/s, 158° | - | - |
* Rain latest hour (hover to see other rain measurements)
** Current wind speed in m/s (hover to see current wind gust speed)